Regional Weather Roundup
Issued by NWS Newport/Morehead, NC

Current Version | Previous Version | Graphics & Text | Print | Product List | Glossary Off
Versions: 1 2 3 4 5 6 7 8 9 10 11 12 13 14 15 16 17 18 19 20 21 22 23 24 25 26 27 28 29 30 31 32 33 34 35 36 37 38 39 40 41 42 43 44 45 46 47 48 49 50
000 ASUS42 KMHX 011410 RWRMHX WEATHER ROUNDUP FOR EASTERN NORTH CAROLINA NATIONAL WEATHER SERVICE NEWPORT/MOREHEAD CITY NC 900 AM EST SUN FEB 01 2015 NOTE: "FAIR" INDICATES FEW OR NO CLOUDS BELOW 12,000 FEET WITH NO SIGNIFICANT WEATHER AND/OR OBSTRUCTIONS TO VISIBILITY NCZ015>017-031-032-045>047-102-103-011500- NORTH COAST CITY SKY/WX TMP DP RH WIND PRES REMARKS EDENTON CLOUDY 39 23 53 W3 30.31S ELIZABETH CITY PTSUNNY 35 24 64 CALM 30.32R KITTY HAWK PTSUNNY 39 26 58 W5 30.30R MANTEO MOSUNNY 37 27 65 W5 30.32R $$ NCZ045>047-081-094-103-104-011500- CENTRAL COAST CITY SKY/WX TMP DP RH WIND PRES REMARKS FRISCO MOSUNNY 46 30 53 W7 30.32S SWANQUARTER N/A 41 N/A N/A W2 30.27S $$ NCZ095-097-098-100-101-011500- SOUTHERN COAST CITY SKY/WX TMP DP RH WIND PRES REMARKS BEAUFORT CLOUDY 45 37 73 W5 30.34R CEDAR ISLAND N/A 41 N/A N/A SW7 30.36S JACKSONVILLE MOSUNNY 42 27 55 SW3 30.32S PINEY ISLAND N/A N/A N/A N/A MISG 30.33R WILMINGTON PTSUNNY 43 34 70 S5 30.33S $$ NCZ011>013-027>030-043-044-078>080-089-090>093-098-011500- COASTAL PLAIN CITY SKY/WX TMP DP RH WIND PRES REMARKS AHOSKIE PTSUNNY 33 27 78 CALM 30.31S CLINTON MOSUNNY 40 30 69 SW5 30.33R ELIZABETHTOWN PTSUNNY 42 29 59 S5 30.31S GOLDSBORO MOSUNNY 41 31 66 CALM 30.29F GREENVILLE CLOUDY 37 23 56 CALM 30.31F HAVELOCK CLOUDY 41 28 60 SW3 30.34R KENANSVILLE MOSUNNY 40 28 61 CALM 30.31F KINSTON PTSUNNY 41 27 56 S7 30.31F NEW BERN PTSUNNY 42 27 55 SW6 30.34R RICHLANDS MOSUNNY 43 28 56 SW3 30.31F ROCKY MOUNT PTSUNNY 39 23 52 S3 30.29F WASHINGTON CLOUDY 36 25 63 CALM 30.32S WHITEVILLE CLOUDY 42 30 63 CALM 30.31F $$ AMZ130-135-150-152-154-156-158-170-250-252-270-ANZ085-086-088-633-658-670-011500- MARINE OBSERVATIONS STATION/POSITION TIME TEMP WIND PRES WAVE SWELL AIR SEA DIR/SP/G HT/PER HT/PER (UTC) (F) (DEG/KT/KT) (MB) (FT/S) (FT/S) CHESAPEAKE LIGHT 1300 38 70/ 14/ 14 1026.7 64 E VA BEACH 1400 43 48 40/ 4/ 6 1025.8 4/ 7 3/ 7 DUCK 1400 37 40 350/ 5/ 6 1025.5 2 E DUCK 1400 40 N/A 2/ 6 10 NE DUCK 1400 43 N/A 3/ 7 OREGON INLET 1400 38 37 240/ 4/ 5 1026.3 13E OREGON INLT 1400 41 N/A 5/11 3/11 HATTERAS CG 1400 45 44 260/ 8/ 10 1026.9 DIAMOND BUOY 1400 52 71 280/ 14/ 17 1026.5 7/11 7/11 17 S OCRACOKE NOT AVBL CAPE LOOKOUT 1300 47 270/ 6/ 7 1026.7 BEAUFORT LAB 1400 45 45 290/ 2/ 5 1025.8 27 SE WRIGHTSVLE NOT AVBL 5 SE WRIGHTSVLE 1300 48 51 250/ 6/ 6 1026.7 225 S CAPE HAT 1315 59 69 320/ 2/ 8 1028.2 9/11 8/11 41 SE CHARLESTON 1400 60 70 180/ 8/ 10 1026.1 4/11 3/11 $$

USA.gov is the U.S. government's official web portal to all federal, state and local government web resources and services.